Regional Weather Roundup
Issued by NWS

Home | Current Version | Previous Version | Graphics & Text | Print | Product List | Glossary On
Versions: 1 2 3 4 5 6 7 8 9 10 11 12 13 14 15 16 17 18 19 20 21 22 23 24 25 26 27 28 29 30 31 32 33 34 35 36 37 38 39 40 41 42 43 44 45 46 47 48 49 50
000
ASUS43 KIND 260109
RWRIN

WEATHER ROUNDUP FOR INDIANA
NATIONAL WEATHER SERVICE INDIANAPOLIS IN
900 PM EDT TUE APR 25 2017

NOTE: "FAIR" INDICATES FEW OR NO CLOUDS BELOW 12,000 FEET WITH NO
SIGNIFICANT WEATHER AND/OR OBSTRUCTIONS TO VISIBILITY.

* - STATION DOES NOT REPORT WEATHER SUCH AS PRECIPITATION OR FOG.

+ - STATION NOT QUALITY CONTROLLED BY THE NATIONAL WEATHER SERVICE.
    USE DATA WITH CAUTION...ESPECIALLY DEWPOINT AND RELATIVE
    HUMIDITY OBSERVATIONS.

INZ001>003-010>013-019-020-260200-
NORTHWEST INDIANA

CITY           SKY/WX    TMP DP  RH WIND       PRES   REMARKS
GARY /AIRPORT/ CLOUDY    75  48  38 SE12      29.57R
KNOX *+        CLOUDY    70  30  23 SE10      29.58S
LA PORTE +     PTCLDY    69  54  58 SE8       29.59S
MICHIGAN CITY+ CLOUDY    70  52  52 SE5       29.59S
MONTICELLO +   PTCLDY    71  53  52 SE7       29.58R
RENSSELAER +   CLEAR     72  50  46 SE9       29.58R
VALPARAISO     CLOUDY    72  54  53 SE8       29.59R

$$

LMZ046-743>745-260200-
SOUTHERN LAKE MICHIGAN

STATION/POSITION TIME  TEMP    WIND        PRES    WAVE
                       AIR SEA DIR/SP/G            HT
                 (UTC) (F)     (DEG/KT/KT) (MB)    (FT)
BURNS HARBOR     0040   74     130/  9/ 17 1001.7R
MICHIGAN CITY    0040   73     120/  7/ 10   N/A

$$

INZ004-005-014>016-021>024-260200-
NORTH CENTRAL INDIANA

CITY           SKY/WX    TMP DP  RH WIND       PRES   REMARKS
ELKHART        PTCLDY    68  54  60 SE6       29.62S
GOSHEN         PTCLDY    68  53  58 SE6       29.62S
LOGANSPORT +   CLOUDY    68  54  60 SE9       29.61S
PERU/GRISSOM   MOCLDY    68  56  65 SE9       29.60S
ROCHESTER +    CLOUDY    72  54  53 S5        29.62S
SOUTH BEND     CLOUDY    70  54  56 SE12      29.61S
WARSAW +       CLOUDY    68  54  60 SE3       29.62S

$$

INZ006>009-017-018-025>027-260200-
NORTHEAST INDIANA

CITY           SKY/WX    TMP DP  RH WIND       PRES   REMARKS
ANGOLA *+      CLEAR     70  54  56 SE5       29.64S
AUBURN +       CLEAR     70  52  52 SE3       29.65S
FORT WAYNE     MOCLDY    70  53  54 SE9       29.64S
HUNTINGTON +   CLOUDY    70  54  56 S6        29.63S
KENDALLVILLE + CLOUDY    68  54  60 SE9       29.64S

$$

INZ028-029-035-036-043>045-051>053-260200-
WEST CENTRAL INDIANA

CITY           SKY/WX    TMP DP  RH WIND       PRES   REMARKS
CRAWFORDSVL +  CLEAR     68  53  58 SE13      29.59S
GREENCASTLE +  CLEAR     68  52  56 SE9       29.61S
LAFAYETTE      CLEAR     70  54  56 SE7       29.58R
TERRE HAUTE    CLOUDY    71  53  52 S10       29.58S

$$

INZ030>032-037>040-046>048-054>057-064-065-260200-
CENTRAL INDIANA

CITY           SKY/WX    TMP DP  RH WIND       PRES   REMARKS
CP ATTERBURY + CLOUDY    68  54  60 SE9       29.65F
COLUMBUS       CLEAR     68  50  52 SE9       29.66S
FRANKFORT +    PTCLDY    72  55  55 SE10G18   29.62S
GREENWOOD *+   CLOUDY    71  54  54 SE9       29.64F
INDIANAPOLIS   MOCLDY    70  54  56 SE15      29.61F
-EAGLE CREEK   PTCLDY    72  54  53 SE10G22   29.61F
KOKOMO +       MOCLDY    69  56  62 SE10      29.63S
MARION +       CLOUDY    70  55  60 S8        29.64S
MT COMFORT *+  MOCLDY    68  55  64 S7        29.64F
SHELBYVILLE    CLOUDY    71  54  54 S8        29.64F
ZIONSVILLE +   PTCLDY    69  54  58 SE12      29.62F

$$

INZ033-034-041-042-049-050-058-059-260200-
EAST CENTRAL INDIANA

CITY           SKY/WX    TMP DP  RH WIND       PRES   REMARKS
MUNCIE         CLOUDY    72  54  53 S8        29.65R
RICHMOND +     CLEAR     63  54  72 S6        29.69S

$$

INZ060-061-067>069-081>083-085>088-260200-
SOUTHWEST INDIANA

CITY           SKY/WX    TMP DP  RH WIND       PRES   REMARKS
EVANSVILLE     PTCLDY    73  57  57 S9        29.61F
HUNTINGBURG *+ PTCLDY    70  56  61 SE7       29.63S
WASHINGTON +   PTCLDY   N/A N/A N/A MISG      29.60F

$$

INZ062-063-066-070>080-084-089>092-260200-
SOUTH CENTRAL AND SOUTHEAST INDIANA

CITY           SKY/WX    TMP DP  RH WIND       PRES   REMARKS
BEDFORD +      CLEAR     68  54  60 SE7       29.63
BLOOMINGTON    PTCLDY    71  54  54 SE12      29.62S
MADISON *+     CLEAR     68  54  60 SE3       29.70R
NORTH VERNON + CLOUDY    66  55  68 S3        29.68R
SEYMOUR +      CLEAR     68  55  64 SE7       29.65F

$$





USA.gov is the U.S. government's official web portal to all federal, state and local government web resources and services.